USA 93

导读

USA 93是美国于1993年7月19日08:00发射的军事卫星,隶属于美国军方保密航天项目。作为美国冷战后部署的军用航天器,它承担着特定国防任务,大概率为通信、侦察或导航类军事载荷。该卫星由美国航天发射体系送入预定轨道,延续了美国"数字"命名保密卫星的惯例,身份细节长期未公开,是美国90年代空间军事部署的组成部分,服务于美军全球战略监测与通信保障能力建设,至今已在轨运行三十余年,是美国军用卫星体系早期部署的典型产物。

基本信息
目录编号:
22719
目录名称:
USA 93
国际标识:
1993-046A
轨道中心:
EARTH
卫星名称:
USA 93
卫星全名:
--
卫星状态:
在轨 (已飞行12048 天)
发射日期:
1993-07-19 UTC
国别 :
美国 (US)
星等 :
--
轨道信息
数据来源 国际轨道数据 AOE轨道数据
星历时间 2026-07-13T09:47:26+0800
1天前
查看轨道信息
2026-07-12T08:00:00+0800
2天前
查看轨道信息
半长轴 42511.732km 42511.789km
偏心率 0.000114 0.0001159
轨道倾角 13.929° 13.928°
近地点辐角 82.399° 85.124°
升交点赤经 13.979° 13.986°
平近点角 285.315° 259.405°
近地点 36128.748km 36128.724km
远地点 36138.442km 36138.58km
周期 1453.861分钟 1453.864分钟
每日圈数 0.990466 0.990464
详细信息
使用方式:
暂无
2D轨道图
3D轨道图
轨道高度分析图
轨道倾角分析图
轨道综合分析图
查看轨道综合分析图